Weather History for Winchester, VA

Change the Weather History Date:

Monday, December 23, 2013

  Actual Average Record
Temperature  
Mean Temperature 46 °F -  
Max Temperature 60 °F 41 °F 67 °F (1990)
Min Temperature 33 °F 25 °F -18 °F (1983)
Degree Days  
Heating Degree Days 18    
Moisture  
Dew Point 43 °F    
Average Humidity 81    
Maximum Humidity 100    
Minimum Humidity 61    
Precipitation  
Precipitation 0.17 in - - ()
Sea Level Pressure  
Sea Level Pressure 30.07 in    
Wind  
Wind Speed 7 mph (NW)    
Max Wind Speed 25 mph    
Max Gust Speed 34 mph    
Visibility 8 miles    
Events Rain    
Averages and records for this station are not official NWS values.
T = Trace of Precipitation, MM = Missing Value Source: NWS Daily Summary

Daily Weather History Graph

Daily Weather History Graph

Search for Another Location

Airport:

Trip Planner

Search our weather history database for the weather conditions in past years. The results will help you decide how hot, cold, wet, or windy it might be!

Date:

Astronomy

Dec. 23, 2013 Rise Set
Actual Time 7:29 AM EST 4:54 PM EST
Civil Twilight 6:59 AM EST 5:24 PM EST
Nautical Twilight 6:25 AM EST 5:58 PM EST
Astronomical Twilight 5:53 AM EST 6:30 PM EST
Moon 10:59 PM EST (12/23) 10:56 AM EST (12/23)
Length of Visible Light 10h 25m
Length of Day
9h 25m
Waning Gibbous, 68% of the Moon is Illuminated
Dec 23
Waning Gibbous
Dec 25
Last Quarter
Jan 1
New
Jan 7
First Quarter
Jan 15
Full

Hourly Weather History & Observations

Time (EST) Temp. Windchill Dew Point Humidity Pressure Visibility Wind Dir Wind Speed Gust Speed Precip Events Conditions
12:15 AM 59.0 °F - 53.6 °F 82% 29.98 in 10.0 mi WSW 5.8 mph - N/A   Scattered Clouds
12:35 AM 60.8 °F - 53.6 °F 77% 29.95 in 10.0 mi SE 3.5 mph - N/A   Mostly Cloudy
12:55 AM 59.0 °F - 53.6 °F 82% 29.97 in 10.0 mi Calm Calm - N/A   Overcast
1:15 AM 59.0 °F - 53.6 °F 82% 29.97 in 10.0 mi Calm Calm - N/A   Overcast
1:35 AM 59.0 °F - 55.4 °F 88% 29.97 in 10.0 mi South 3.5 mph - N/A   Overcast
1:55 AM 59.0 °F - 55.4 °F 88% 29.97 in 10.0 mi South 4.6 mph - N/A   Light Drizzle
2:15 AM 59.0 °F - 55.4 °F 88% 29.97 in 10.0 mi Calm Calm - N/A Rain Light Rain
2:35 AM 59.0 °F - 55.4 °F 88% 29.97 in 5.0 mi SSE 3.5 mph - 0.01 in Rain Rain
2:55 AM 57.2 °F - 55.4 °F 94% 29.97 in 7.0 mi Calm Calm - 0.02 in Rain Light Rain
3:15 AM 55.4 °F - 55.4 °F 100% 29.97 in 7.0 mi Calm Calm - 0.02 in Rain Rain
3:35 AM 55.4 °F - 53.6 °F 94% 29.97 in 4.0 mi Calm Calm - 0.03 in Rain Light Rain
3:55 AM 55.4 °F - 55.4 °F 100% 29.97 in 2.5 mi Calm Calm - 0.04 in Rain Rain
4:15 AM 55.4 °F - 53.6 °F 94% 29.96 in 1.5 mi Calm Calm - 0.01 in Rain Rain
4:35 AM 55.4 °F - 55.4 °F 100% 29.95 in 1.2 mi Calm Calm - 0.01 in Rain Light Rain
4:55 AM 55.4 °F - 53.6 °F 94% 29.95 in 2.0 mi Calm Calm - 0.02 in Rain Rain
5:15 AM 55.4 °F - 55.4 °F 100% 29.96 in 1.8 mi Calm Calm - 0.01 in Rain Rain
5:35 AM 55.4 °F - 53.6 °F 94% 29.95 in 1.0 mi East 3.5 mph - 0.05 in Rain Rain
5:55 AM 55.4 °F - 53.6 °F 94% 29.95 in 0.8 mi SE 3.5 mph - 0.07 in Rain Light Rain
6:15 AM 55.4 °F - 55.4 °F 100% 29.91 in 1.8 mi SE 4.6 mph - N/A   Light Drizzle
6:35 AM 55.4 °F - 55.4 °F 100% 29.91 in 1.5 mi SE 3.5 mph - N/A Rain Light Rain
6:55 AM 55.4 °F - 55.4 °F 100% 29.95 in 1.0 mi WNW 5.8 mph - N/A Rain Light Rain
7:15 AM 55.4 °F - 55.4 °F 100% 29.95 in 3.0 mi Calm Calm - N/A   Light Drizzle
7:35 AM 55.4 °F - 55.4 °F 100% 29.94 in 2.0 mi Calm Calm - N/A   Overcast
7:55 AM 55.4 °F - 55.4 °F 100% 29.97 in 3.0 mi Calm Calm - N/A   Overcast
8:15 AM 55.4 °F - 53.6 °F 94% 29.99 in 1.8 mi West 3.5 mph - N/A   Drizzle
8:35 AM 55.4 °F - 53.6 °F 94% 29.96 in 0.8 mi East 3.5 mph - 0.01 in Rain Rain
8:55 AM 55.4 °F - 53.6 °F 94% 29.99 in 1.5 mi WNW 3.5 mph - 0.01 in   Overcast
9:15 AM 53.6 °F - 53.6 °F 100% 29.97 in 10.0 mi NW 10.4 mph - N/A   Drizzle
9:35 AM 53.6 °F - 53.6 °F 100% 30.02 in 5.0 mi WNW 5.8 mph - 0.01 in   Drizzle
9:55 AM 53.6 °F - 53.6 °F 100% 30.00 in 10.0 mi NW 3.5 mph - 0.01 in   Light Drizzle
10:15 AM 53.6 °F - 53.6 °F 100% 30.02 in 10.0 mi NW 8.1 mph - N/A Rain Rain
10:35 AM 55.4 °F - 51.8 °F 88% 30.01 in 10.0 mi North 3.5 mph - N/A   Overcast
10:55 AM 55.4 °F - 50.0 °F 82% 30.03 in 10.0 mi NW 10.4 mph - N/A   Overcast
11:15 AM 53.6 °F - 50.0 °F 88% 30.02 in 10.0 mi NNW 6.9 mph - N/A   Overcast
11:35 AM 53.6 °F - 50.0 °F 88% 30.01 in 10.0 mi NW 10.4 mph - N/A   Overcast
11:55 AM 53.6 °F - 48.2 °F 82% 30.01 in 10.0 mi WNW 19.6 mph - N/A   Overcast
12:15 PM 53.6 °F - 46.4 °F 77% 30.02 in 10.0 mi NW 20.7 mph 26.5 mph N/A   Overcast
12:35 PM 51.8 °F - 44.6 °F 76% 30.03 in 10.0 mi NW 17.3 mph 27.6 mph N/A   Overcast
12:55 PM 50.0 °F - 42.8 °F 76% 30.05 in 10.0 mi WNW 16.1 mph 23.0 mph N/A   Overcast
1:15 PM 50.0 °F - 41.0 °F 71% 30.05 in 10.0 mi NW 13.8 mph 20.7 mph N/A   Overcast
1:35 PM 50.0 °F - 41.0 °F 71% 30.05 in 10.0 mi NW 10.4 mph - N/A   Overcast
1:55 PM 50.0 °F - 41.0 °F 71% 30.06 in 10.0 mi NW 13.8 mph 20.7 mph N/A   Overcast
2:15 PM 50.0 °F - 39.2 °F 66% 30.07 in 10.0 mi WNW 13.8 mph 19.6 mph N/A   Overcast
2:35 PM 50.0 °F - 37.4 °F 62% 30.08 in 10.0 mi WNW 20.7 mph - N/A   Overcast
2:55 PM 48.2 °F - 37.4 °F 66% 30.08 in 10.0 mi WNW 16.1 mph 21.9 mph N/A   Overcast
3:15 PM 46.4 °F 40.1 °F 35.6 °F 66% 30.10 in 10.0 mi NW 15.0 mph 20.7 mph N/A   Overcast
3:35 PM 46.4 °F 37.9 °F 35.6 °F 66% 30.10 in 10.0 mi NW 25.3 mph 31.1 mph N/A   Overcast
3:55 PM 44.6 °F 36.1 °F 33.8 °F 66% 30.12 in 10.0 mi NW 21.9 mph 26.5 mph N/A   Overcast
4:15 PM 44.6 °F 35.9 °F 32.0 °F 61% 30.13 in 10.0 mi NW 23.0 mph - N/A   Overcast
4:35 PM 42.8 °F 33.5 °F 32.0 °F 66% 30.15 in 10.0 mi WNW 23.0 mph 34.5 mph N/A   Overcast
4:55 PM 42.8 °F 35.1 °F 32.0 °F 66% 30.16 in 10.0 mi NW 16.1 mph 20.7 mph N/A   Overcast
5:15 PM 42.8 °F 34.8 °F 32.0 °F 66% 30.17 in 10.0 mi WNW 17.3 mph 27.6 mph N/A   Overcast
5:35 PM 41.0 °F 32.8 °F 32.0 °F 70% 30.16 in 10.0 mi NW 16.1 mph 26.5 mph N/A   Overcast
5:55 PM 41.0 °F 31.4 °F 32.0 °F 70% 30.17 in 10.0 mi NW 21.9 mph 27.6 mph N/A   Mostly Cloudy
6:15 PM 39.2 °F 31.6 °F 30.2 °F 70% 30.18 in 10.0 mi NW 12.7 mph - N/A   Scattered Clouds
6:35 PM 39.2 °F 30.8 °F 30.2 °F 70% 30.19 in 10.0 mi NW 15.0 mph 23.0 mph N/A   Scattered Clouds
6:55 PM 37.4 °F 27.5 °F 30.2 °F 75% 30.19 in 10.0 mi NW 18.4 mph 26.5 mph N/A   Scattered Clouds
7:15 PM 37.4 °F 27.8 °F 30.2 °F 75% 30.20 in 10.0 mi NW 17.3 mph 27.6 mph N/A   Clear
7:35 PM 37.4 °F 28.2 °F 28.4 °F 70% 30.21 in 10.0 mi NW 16.1 mph 21.9 mph N/A   Clear
7:55 PM 37.4 °F 29.8 °F 26.6 °F 65% 30.22 in 10.0 mi NW 11.5 mph - N/A   Scattered Clouds
8:15 PM 37.4 °F 30.3 °F 26.6 °F 65% 30.22 in 10.0 mi NW 10.4 mph - N/A   Mostly Cloudy
8:35 PM 37.4 °F 32.8 °F 28.4 °F 70% 30.22 in 10.0 mi NW 5.8 mph - N/A   Overcast
8:55 PM 37.4 °F 32.8 °F 28.4 °F 70% 30.22 in 10.0 mi NW 5.8 mph - N/A   Overcast
9:15 PM 37.4 °F 32.1 °F 26.6 °F 65% 30.23 in 10.0 mi NNW 6.9 mph - N/A   Overcast
9:35 PM 37.4 °F 31.4 °F 26.6 °F 65% 30.23 in 10.0 mi NW 8.1 mph - N/A   Overcast
9:55 PM 35.6 °F 27.5 °F 28.4 °F 75% 30.23 in 10.0 mi NW 11.5 mph - N/A   Overcast
10:15 PM 35.6 °F 27.5 °F 26.6 °F 70% 30.23 in 10.0 mi WNW 11.5 mph - N/A   Mostly Cloudy
10:35 PM 33.8 °F 26.4 °F 26.6 °F 75% 30.23 in 10.0 mi WNW 9.2 mph - N/A   Scattered Clouds
10:55 PM 35.6 °F 28.0 °F 26.6 °F 70% 30.24 in 10.0 mi WNW 10.4 mph - N/A   Scattered Clouds
11:15 PM 33.8 °F 26.4 °F 26.6 °F 75% 30.24 in 10.0 mi NW 9.2 mph - N/A   Overcast
11:35 PM 33.8 °F 24.8 °F 24.8 °F 70% 30.24 in 10.0 mi WNW 12.7 mph - N/A   Overcast
11:55 PM 33.8 °F 25.8 °F 26.6 °F 75% 30.24 in 10.0 mi NW 10.4 mph - N/A   Mostly Cloudy